TimeMST,TemperatureF,Dew PointF,Humidity,Sea Level PressureIn,VisibilityMPH,Wind Direction,Wind SpeedMPH,Gust SpeedMPH,PrecipitationIn,Events,Conditions,WindDirDegrees,DateUTC
12:08 AM,-11.2,-14.8,84,30.03,8.0,NNW,8.1,-,N/A,,Scattered Clouds,330,2013-01-08 07:08:00
12:52 AM,-18.0,-23.1,78,30.38,8.0,East,4.6,-,N/A,,Clear,90,2013-01-08 07:52:00
1:18 AM,-20.2,-25.6,76,30.03,8.0,Calm,Calm,-,N/A,,Scattered Clouds,0,2013-01-08 08:18:00
1:26 AM,-20.2,-25.6,76,30.03,8.0,Calm,Calm,-,N/A,,Mostly Cloudy,0,2013-01-08 08:26:00
1:40 AM,-20.2,-23.8,83,30.03,8.0,Calm,Calm,-,N/A,,Scattered Clouds,0,2013-01-08 08:40:00
1:52 AM,-17.0,-23.1,74,30.35,7.0,Calm,Calm,-,N/A,,Partly Cloudy,0,2013-01-08 08:52:00
2:21 AM,-20.2,-23.8,83,30.03,8.0,SSW,3.5,-,N/A,,Mostly Cloudy,200,2013-01-08 09:21:00
2:34 AM,-20.2,-25.6,76,30.02,0.8,Calm,Calm,-,N/A,,Haze,0,2013-01-08 09:34:00
2:52 AM,-20.9,-22.0,95,30.38,0.2,Calm,Calm,-,N/A,Fog,Light Freezing Fog,0,2013-01-08 09:52:00
3:52 AM,-17.0,-20.9,82,30.36,0.2,ESE,4.6,-,N/A,Fog,Light Freezing Fog,120,2013-01-08 10:52:00
4:52 AM,-14.8,-20.2,77,30.02,0.5,NNW,4.6,-,N/A,,Haze,330,2013-01-08 11:52:00
5:04 AM,-14.8,-18.4,84,30.02,1.0,Calm,Calm,-,N/A,,Haze,0,2013-01-08 12:04:00
5:21 AM,-14.8,-18.4,84,30.02,3.0,Calm,Calm,-,N/A,,Haze,0,2013-01-08 12:21:00
5:40 AM,-14.8,-20.2,77,30.02,1.8,NNW,4.6,-,N/A,,Haze,330,2013-01-08 12:40:00
6:01 AM,-16.6,-22.0,76,30.03,3.0,WNW,5.8,-,N/A,,Haze,300,2013-01-08 13:01:00
6:17 AM,-16.6,-23.8,70,30.04,2.0,NW,6.9,-,N/A,,Haze,320,2013-01-08 13:17:00
6:28 AM,-14.8,-20.2,77,30.05,4.0,NW,8.1,-,N/A,,Haze,310,2013-01-08 13:28:00
6:52 AM,-14.1,-18.9,79,30.51,5.0,NW,4.6,-,N/A,,Haze,310,2013-01-08 13:52:00
7:03 AM,-14.8,-18.4,84,30.06,1.5,WNW,5.8,-,N/A,,Overcast,300,2013-01-08 14:03:00
7:28 AM,-14.8,-20.2,77,30.06,3.0,NNE,3.5,-,N/A,,Haze,20,2013-01-08 14:28:00
7:37 AM,-16.6,-22.0,76,30.06,2.0,Calm,Calm,-,N/A,,Haze,0,2013-01-08 14:37:00
7:48 AM,-16.6,-22.0,76,30.07,5.0,Calm,Calm,-,N/A,,Haze,0,2013-01-08 14:48:00
7:52 AM,-16.1,-22.0,74,30.56,4.0,Calm,Calm,-,N/A,,Haze,0,2013-01-08 14:52:00
8:52 AM,-11.0,-17.0,75,30.60,2.5,ESE,3.5,-,N/A,,Haze,120,2013-01-08 15:52:00
9:02 AM,-9.4,-14.8,77,30.11,1.2,Calm,Calm,-,N/A,,Haze,0,2013-01-08 16:02:00
9:13 AM,-7.6,-9.4,92,30.11,2.0,Calm,Calm,-,N/A,,Overcast,0,2013-01-08 16:13:00
9:23 AM,-5.8,-9.4,84,30.11,4.0,Calm,Calm,-,N/A,,Haze,0,2013-01-08 16:23:00
9:52 AM,-4.0,-5.1,95,30.60,3.0,Calm,Calm,-,N/A,,Mostly Cloudy,0,2013-01-08 16:52:00
10:02 AM,-0.4,-2.2,92,30.11,5.0,Calm,Calm,-,N/A,,Scattered Clouds,0,2013-01-08 17:02:00
10:52 AM,3.9,1.0,88,30.55,9.0,Calm,Calm,-,N/A,,Clear,0,2013-01-08 17:52:00
11:52 AM,10.0,1.9,70,30.45,10.0,Calm,Calm,-,N/A,,Clear,0,2013-01-08 18:52:00
12:52 PM,15.1,3.0,59,30.47,10.0,West,3.5,-,N/A,,Clear,280,2013-01-08 19:52:00
1:52 PM,21.9,6.1,51,30.40,10.0,NW,4.6,-,N/A,,Clear,310,2013-01-08 20:52:00
2:52 PM,21.9,6.1,51,30.45,10.0,West,4.6,-,N/A,,Clear,280,2013-01-08 21:52:00
3:52 PM,21.0,6.1,53,30.46,10.0,West,4.6,-,N/A,,Clear,260,2013-01-08 22:52:00
4:52 PM,15.1,3.0,59,30.51,10.0,Calm,Calm,-,N/A,,Clear,0,2013-01-08 23:52:00
5:52 PM,10.9,3.9,73,30.56,10.0,NE,3.5,-,N/A,,Clear,40,2013-01-09 00:52:00
6:52 PM,5.0,-0.9,76,30.63,10.0,North,3.5,-,N/A,,Clear,10,2013-01-09 01:52:00
7:52 PM,-5.1,-9.0,83,30.74,9.0,SE,5.8,-,N/A,,Clear,130,2013-01-09 02:52:00
8:52 PM,-2.9,-8.0,79,30.71,8.0,Calm,Calm,-,N/A,,Unknown,0,2013-01-09 03:52:00
9:52 PM,-9.0,-11.9,87,30.74,9.0,Calm,Calm,-,N/A,,Clear,0,2013-01-09 04:52:00
10:52 PM,-8.0,-14.1,75,30.70,9.0,NNW,4.6,-,N/A,,Clear,330,2013-01-09 05:52:00
11:52 PM,-11.9,-17.0,78,30.71,10.0,West,3.5,-,N/A,,Clear,280,2013-01-09 06:52:00